TimeCST,TemperatureF,Dew PointF,Humidity,Sea Level PressureIn,VisibilityMPH,Wind Direction,Wind SpeedMPH,Gust SpeedMPH,PrecipitationIn,Events,Conditions,WindDirDegrees,DateUTC
12:15 AM,19.2,14.7,83,30.12,10.0,SW,11.5,-,N/A,,Clear,230,2013-01-04 06:15:00
12:35 AM,19.4,14.9,83,30.10,10.0,WSW,18.4,24.2,N/A,,Clear,240,2013-01-04 06:35:00
12:55 AM,19.9,14.5,80,30.09,10.0,WSW,19.6,25.3,N/A,,Clear,250,2013-01-04 06:55:00
1:15 AM,18.9,14.2,82,30.08,10.0,WSW,23.0,26.5,N/A,,Clear,250,2013-01-04 07:15:00
1:35 AM,20.1,15.1,81,30.07,4.0,WSW,24.2,-,N/A,,Haze,240,2013-01-04 07:35:00
1:55 AM,20.1,15.3,81,30.05,5.0,WSW,26.5,32.2,N/A,,Haze,240,2013-01-04 07:55:00
2:15 AM,21.7,16.0,78,30.06,3.0,WSW,27.6,34.5,N/A,,Haze,240,2013-01-04 08:15:00
2:35 AM,19.9,14.5,80,30.06,5.0,WSW,25.3,31.1,N/A,,Haze,240,2013-01-04 08:35:00
2:55 AM,19.9,14.7,80,30.07,4.0,WSW,25.3,-,N/A,,Haze,240,2013-01-04 08:55:00
3:15 AM,18.7,14.4,83,30.06,4.0,WSW,24.2,32.2,N/A,,Haze,250,2013-01-04 09:15:00
3:35 AM,18.7,14.0,82,30.06,10.0,West,20.7,26.5,N/A,,Clear,260,2013-01-04 09:35:00
3:55 AM,18.3,13.5,81,30.05,10.0,WSW,21.9,25.3,N/A,,Clear,250,2013-01-04 09:55:00
4:15 AM,19.9,14.0,78,30.04,5.0,WSW,24.2,-,N/A,,Haze,250,2013-01-04 10:15:00
4:35 AM,19.6,13.1,76,30.04,10.0,West,17.3,25.3,N/A,,Clear,260,2013-01-04 10:35:00
4:54 AM,20.3,13.1,74,30.05,10.0,WSW,17.3,21.9,N/A,,Clear,250,2013-01-04 10:54:00
5:15 AM,21.7,13.3,70,30.03,10.0,WSW,23.0,-,N/A,,Clear,240,2013-01-04 11:15:00
5:35 AM,21.6,12.0,67,30.05,10.0,West,12.7,24.2,N/A,,Clear,260,2013-01-04 11:35:00
5:54 AM,18.1,11.3,75,30.06,10.0,West,13.8,-,N/A,,Clear,270,2013-01-04 11:54:00
6:15 AM,17.4,10.4,74,30.05,10.0,West,13.8,19.6,N/A,,Clear,260,2013-01-04 12:15:00
6:35 AM,18.3,10.4,71,30.06,10.0,WSW,8.1,-,N/A,,Clear,250,2013-01-04 12:35:00
6:55 AM,18.9,10.2,69,30.05,10.0,West,10.4,16.1,N/A,,Clear,260,2013-01-04 12:55:00
7:15 AM,18.7,9.9,69,30.06,10.0,West,10.4,-,N/A,,Clear,270,2013-01-04 13:15:00
7:35 AM,18.5,9.5,68,30.06,10.0,West,12.7,-,N/A,,Clear,270,2013-01-04 13:35:00
7:55 AM,18.7,9.5,67,30.06,10.0,West,12.7,-,N/A,,Clear,260,2013-01-04 13:55:00
8:15 AM,18.5,9.5,68,30.06,10.0,West,12.7,-,N/A,,Clear,270,2013-01-04 14:15:00
8:35 AM,18.3,9.5,68,30.07,10.0,West,12.7,-,N/A,,Clear,280,2013-01-04 14:35:00
8:55 AM,18.3,9.5,68,30.08,10.0,West,8.1,-,N/A,,Clear,270,2013-01-04 14:55:00
9:15 AM,18.0,10.0,71,30.08,10.0,West,10.4,-,N/A,,Clear,280,2013-01-04 15:15:00
9:35 AM,19.0,10.4,69,30.10,10.0,WNW,9.2,-,N/A,,Clear,300,2013-01-04 15:35:00
9:55 AM,19.2,10.6,69,30.11,10.0,West,6.9,-,N/A,,Clear,270,2013-01-04 15:55:00
10:15 AM,19.9,11.3,69,30.11,10.0,West,9.2,-,N/A,,Clear,270,2013-01-04 16:15:00
10:35 AM,20.3,12.2,71,30.11,10.0,WNW,5.8,-,N/A,,Clear,290,2013-01-04 16:35:00
10:55 AM,21.9,12.4,67,30.11,10.0,West,9.2,-,N/A,,Clear,280,2013-01-04 16:55:00
11:15 AM,23.0,13.1,66,30.11,10.0,West,12.7,-,N/A,,Clear,270,2013-01-04 17:15:00
11:35 AM,23.7,13.8,66,30.11,10.0,West,9.2,-,N/A,,Clear,280,2013-01-04 17:35:00
11:55 AM,24.8,14.9,66,30.11,10.0,West,5.8,-,N/A,,Clear,270,2013-01-04 17:55:00
12:14 PM,24.4,14.9,67,30.11,10.0,West,8.1,-,N/A,,Clear,260,2013-01-04 18:14:00
12:35 PM,24.4,14.5,66,30.10,10.0,West,9.2,-,N/A,,Clear,260,2013-01-04 18:35:00
12:55 PM,24.8,14.9,66,30.10,10.0,West,10.4,-,N/A,,Clear,270,2013-01-04 18:55:00
1:14 PM,25.7,15.1,64,30.10,10.0,West,10.4,-,N/A,,Clear,260,2013-01-04 19:14:00
1:35 PM,26.4,15.6,64,30.09,10.0,West,6.9,-,N/A,,Clear,270,2013-01-04 19:35:00
1:55 PM,27.0,16.9,66,30.09,10.0,West,8.1,-,N/A,,Clear,280,2013-01-04 19:55:00
2:15 PM,27.3,16.5,64,30.09,10.0,West,4.6,-,N/A,,Clear,270,2013-01-04 20:15:00
2:35 PM,27.7,17.8,66,30.09,10.0,WSW,6.9,-,N/A,,Clear,240,2013-01-04 20:35:00
2:55 PM,26.4,17.6,69,30.09,10.0,SW,9.2,-,N/A,,Clear,230,2013-01-04 20:55:00
3:15 PM,25.5,17.6,72,30.08,10.0,WSW,6.9,-,N/A,,Clear,250,2013-01-04 21:15:00
3:35 PM,26.1,16.5,67,30.07,10.0,Calm,Calm,-,N/A,,Clear,0,2013-01-04 21:35:00
3:55 PM,26.4,15.1,62,30.07,10.0,West,6.9,-,N/A,,Clear,280,2013-01-04 21:55:00
4:15 PM,25.5,15.6,66,30.08,10.0,Calm,Calm,-,N/A,,Clear,0,2013-01-04 22:15:00
4:55 PM,20.8,13.6,74,30.08,10.0,WSW,10.4,-,N/A,,Clear,240,2013-01-04 22:55:00
5:35 PM,19.2,11.8,73,30.09,10.0,WSW,12.7,-,N/A,,Clear,240,2013-01-04 23:35:00
5:55 PM,17.4,11.1,76,30.09,10.0,WSW,3.5,-,N/A,,Clear,240,2013-01-04 23:55:00
6:15 PM,16.9,10.8,77,30.10,10.0,SW,9.2,-,N/A,,Clear,220,2013-01-05 00:15:00
6:34 PM,17.1,10.6,76,30.10,10.0,SSW,9.2,-,N/A,,Clear,210,2013-01-05 00:34:00
6:55 PM,16.2,10.4,78,30.10,10.0,SW,5.8,-,N/A,,Clear,230,2013-01-05 00:55:00
7:15 PM,17.4,10.8,75,30.10,10.0,SW,10.4,-,N/A,,Clear,230,2013-01-05 01:15:00
7:34 PM,18.9,11.3,72,30.08,10.0,SW,12.7,-,N/A,,Clear,230,2013-01-05 01:34:00
7:55 PM,16.7,10.4,76,30.09,10.0,WSW,11.5,-,N/A,,Clear,240,2013-01-05 01:55:00
8:15 PM,16.2,10.4,78,30.08,10.0,WSW,9.2,-,N/A,,Clear,240,2013-01-05 02:15:00
8:35 PM,13.8,9.0,81,30.08,10.0,SW,10.4,-,N/A,,Clear,230,2013-01-05 02:35:00
8:55 PM,13.5,8.2,80,30.07,10.0,WSW,10.4,-,N/A,,Clear,240,2013-01-05 02:55:00
9:15 PM,14.9,9.3,79,30.07,10.0,SW,5.8,-,N/A,,Clear,220,2013-01-05 03:15:00
9:35 PM,14.7,10.0,82,30.06,10.0,Calm,Calm,-,N/A,,Clear,0,2013-01-05 03:35:00
9:55 PM,14.7,9.3,79,30.05,10.0,Calm,Calm,-,N/A,,Clear,0,2013-01-05 03:55:00
10:15 PM,14.2,9.1,80,30.05,10.0,SW,4.6,-,N/A,,Clear,230,2013-01-05 04:15:00
10:35 PM,18.1,10.2,71,30.05,10.0,WSW,3.5,-,N/A,,Clear,240,2013-01-05 04:35:00
10:55 PM,18.5,9.3,67,30.05,10.0,SW,6.9,-,N/A,,Clear,220,2013-01-05 04:55:00
11:15 PM,16.5,9.7,74,30.05,10.0,SSW,8.1,-,N/A,,Clear,210,2013-01-05 05:15:00
11:35 PM,14.2,9.1,80,30.04,10.0,SSW,17.3,-,N/A,,Clear,200,2013-01-05 05:35:00
11:54 PM,14.5,10.4,84,30.04,10.0,SSW,16.1,-,N/A,,Clear,210,2013-01-05 05:54:00